DW9686 Weather Reports


time (UTC)temp
C
wind
direction
speed
KPH
gust
KPH
rain 1hr
cm
rain 24hr
cm
rain mn
cm
humidity
%
barometer
mb
20260508231533 23 223 16.1 25.7 0.00 0.00 0.00 36 1013.4
20260508230040 23 233 16.1 25.7 0.00 0.00 0.00 37 1013.6
20260508224532 23 211 12.9 27.4 0.00 0.00 0.00 44 1013.7
20260508223032 23 211 11.3 22.5 0.00 0.00 0.00 44 1013.8
20260508221530 23 223 14.5 27.4 0.00 0.00 0.00 41 1013.8
20260508220033 23 233 16.1 27.4 0.00 0.00 0.00 39 1013.8
20260508214535 22 220 12.9 20.9 0.00 0.00 0.00 41 1014.0
20260508213039 22 218 11.3 22.5 0.00 0.00 0.00 41 1014.0
20260508211538 21 202 11.3 17.7 0.00 0.00 0.00 47 1014.0
20260508210030 20 227 8.0 17.7 0.00 0.00 0.00 51 1014.2
20260508204538 21 225 8.0 14.5 0.00 0.00 0.00 43 1014.2
20260508203038 21 220 9.7 16.1 0.00 0.00 0.00 42 1014.2
20260508201536 20 209 9.7 14.5 0.00 0.00 0.00 47 1014.2
20260508200033 20 212 8.0 22.5 0.00 0.00 0.00 48 1014.4
20260508194536 21 240 8.0 19.3 0.00 0.00 0.00 43 1014.3
20260508193035 21 214 9.7 17.7 0.00 0.00 0.00 42 1014.3
20260508191534 20 223 9.7 19.3 0.00 0.00 0.00 47 1014.5
20260508190032 20 199 8.0 17.7 0.00 0.00 0.00 53 1014.6
20260508184533 20 239 9.7 19.3 0.00 0.00 0.00 49 1014.9
20260508183034 20 190 9.7 19.3 0.00 0.00 0.00 46 1014.8
20260508181543 18 226 9.7 16.1 0.00 0.00 0.00 49 1014.9
20260508180036 18 211 8.0 12.9 0.00 0.00 0.00 56 1014.9
20260508174532 17 203 4.8 11.3 0.00 0.00 0.00 63 1014.9
20260508173032 17 202 4.8 11.3 0.00 0.00 0.00 62 1015.1
20260508171531 16 202 8.0 12.9 0.00 0.00 0.00 60 1015.0
20260508170031 16 200 8.0 16.1 0.00 0.00 0.00 63 1014.8
20260508164530 16 210 8.0 16.1 0.00 0.00 0.00 64 1014.9
20260508163030 16 210 11.3 17.7 0.00 0.00 0.00 62 1014.8
20260508161532 15 166 9.7 14.5 0.00 0.00 0.00 66 1014.6
20260508160034 15 144 4.8 12.9 0.00 0.00 0.00 68 1014.5
20260508154546 14 138 1.6 6.4 0.00 0.00 0.00 69 1014.6
20260508153030 13 138 3.2 8.0 0.00 0.00 0.00 69 1014.4
20260508151536 12 0 1.6 4.8 0.00 0.00 0.00 72 1014.4
20260508150035 12 0 0.0 4.8 0.00 0.00 0.00 72 1014.3
20260508144533 12 0 0.0 4.8 0.00 0.00 0.00 68 1014.4
20260508143031 12 0 0.0 0.0 0.00 0.00 0.00 65 1014.2
20260508141534 12 0 0.0 6.4 0.00 0.00 0.00 64 1014.0
20260508140033 12 0 0.0 1.6 0.00 0.00 0.00 64 1013.8
20260508134539 11 0 0.0 0.0 0.00 0.00 0.00 66 1013.7
20260508133047 10 0 0.0 0.0 0.00 0.00 0.00 68 1013.6
20260508131534 10 0 0.0 0.0 0.00 0.00 0.00 68 1013.8
20260508130034 10 0 0.0 0.0 0.00 0.00 0.00 67 1013.5
20260508124536 10 0 0.0 0.0 0.00 0.00 0.00 67 1013.5
20260508123045 10 0 0.0 0.0 0.00 0.00 0.00 65 1013.3
20260508121534 10 0 0.0 4.8 0.00 0.00 0.00 64 1013.4
20260508120034 10 0 0.0 0.0 0.00 0.00 0.00 64 1013.4
20260508114532 10 0 0.0 0.0 0.00 0.00 0.00 63 1013.4
20260508113030 10 0 0.0 0.0 0.00 0.00 0.00 63 1013.3
20260508111537 10 0 0.0 0.0 0.00 0.00 0.00 64 1013.1
20260508110033 10 0 0.0 3.2 0.00 0.00 0.00 64 1013.1
20260508104532 10 0 0.0 1.6 0.00 0.00 0.00 62 1012.9
20260508103033 11 0 0.0 4.8 0.00 0.00 0.00 57 1012.7
20260508101552 11 0 0.0 4.8 0.00 0.00 0.00 58 1012.6
20260508100032 11 0 0.0 3.2 0.00 0.00 0.00 60 1012.7
20260508094530 11 0 0.0 0.0 0.00 0.00 0.00 60 1012.7
20260508093032 12 138 1.6 4.8 0.00 0.00 0.00 63 1012.6
20260508091532 12 0 0.0 3.2 0.00 0.00 0.00 64 1012.7
20260508090045 13 0 0.0 6.4 0.00 0.00 0.00 63 1012.8
20260508084530 13 138 3.2 4.8 0.00 0.00 0.00 62 1012.5
20260508083032 13 138 3.2 6.4 0.00 0.00 0.00 64 1012.4
20260508081535 12 0 0.0 0.0 0.00 0.00 0.00 63 1012.4
20260508080029 13 0 0.0 0.0 0.00 0.00 0.00 63 1012.4
20260508074532 13 0 0.0 0.0 0.00 0.00 0.00 60 1012.5
20260508073035 13 0 0.0 3.2 0.00 0.00 0.00 59 1012.4
20260508071530 14 0 0.0 0.0 0.00 0.00 0.00 59 1012.3
20260508070030 15 138 0.0 4.8 0.00 0.00 0.00 56 1012.2
20260508064531 15 0 0.0 0.0 0.00 0.00 0.00 56 1012.3
20260508063032 16 138 0.0 3.2 0.00 0.00 0.00 54 1012.3
20260508061537 16 0 0.0 4.8 0.00 0.00 0.00 53 1012.2
20260508060033 16 0 0.0 0.0 0.00 0.00 0.00 52 1012.1
20260508054535 16 0 0.0 0.0 0.00 0.00 0.00 52 1012.1
20260508053034 16 0 0.0 0.0 0.00 0.00 0.00 52 1012.0
20260508051531 17 0 0.0 0.0 0.00 0.00 0.00 49 1012.0
20260508050104 17 0 0.0 0.0 0.00 0.00 0.00 48 1012.0
20260508044532 18 0 0.0 0.0 0.00 0.00 0.00 47 1011.9
20260508043032 18 0 0.0 0.0 0.00 0.00 0.00 46 1011.9
20260508041530 18 0 0.0 0.0 0.00 0.00 0.00 46 1012.0
20260508040045 19 0 0.0 0.0 0.00 0.00 0.00 48 1012.0
20260508034541 20 0 0.0 0.0 0.00 0.00 0.00 46 1011.9
20260508033030 20 0 0.0 1.6 0.00 0.00 0.00 43 1011.8
20260508031535 20 0 0.0 4.8 0.00 0.00 0.00 44 1011.8
20260508030032 21 0 0.0 3.2 0.00 0.00 0.00 48 1011.8
20260508024558 21 0 0.0 0.0 0.00 0.00 0.00 51 1011.7
20260508023033 21 0 0.0 4.8 0.00 0.00 0.00 54 1011.8
20260508021534 22 0 0.0 4.8 0.00 0.00 0.00 51 1011.8
20260508020034 22 138 1.6 8.0 0.00 0.00 0.00 50 1011.8
20260508014536 23 138 3.2 8.0 0.00 0.00 0.00 45 1011.9
20260508013035 24 137 4.8 11.3 0.00 0.00 0.00 36 1011.8
20260508011532 24 137 6.4 14.5 0.00 0.00 0.00 33 1011.9
20260508010042 25 138 6.4 12.9 0.00 0.00 0.00 32 1012.1
20260508004542 25 140 6.4 12.9 0.00 0.00 0.00 32 1012.2
20260508003030 25 140 6.4 14.5 0.00 0.00 0.00 35 1012.2
20260508001541 25 140 4.8 16.1 0.00 0.00 0.00 33 1012.3
20260508000030 25 155 8.0 14.5 0.00 0.00 0.00 34 1012.3
20260507234533 24 161 9.7 19.3 0.00 0.00 0.00 37 1012.4
20260507233029 25 165 9.7 16.1 0.00 0.00 0.00 37 1012.5